Regional Weather Roundup
Issued by NWS

Home | Current Version | Previous Version | Text Only | Print | Product List | Glossary On
Versions: 1 2 3 4 5 6 7 8 9 10 11 12 13 14 15 16 17 18 19 20 21 22 23 24 25 26 27 28 29 30 31 32 33 34 35 36 37 38 39 40 41 42 43 44 45 46 47 48 49 50
000
ASCA44 KEWX 250620
RWRMX

LATIN AMERICA AND CARIBBEAN REGIONAL WEATHER ROUNDUP
NATIONAL WEATHER SERVICE AUSTIN/SAN ANTONIO TX
100 AM CDT MON SEP 25 2017

NOTE: "FAIR" INDICATED FEW OR NO CLOUDS BELOW 12,000 FEET WITH NO
SIGNIFICANT WEATHER AND/OR OBSTRUCTIONS TO VISIBILITY.

BAJA CALIFORNIA

CITY           SKY/WX    TMP DP  RH WIND       PRES   REMARKS
LA PAZ         PTCLDY    72  61  68 S7        29.79S
MEXICALI       CLEAR     72  23  16 W7        29.82S
S.J. DEL CABO    N/A    N/A N/A N/A MISG        N/A
TIJUANA        CLEAR     64  50  59 CALM      29.90S

NORTHWESTERN MEXICO

CITY           SKY/WX    TMP DP  RH WIND       PRES   REMARKS
HERMOSILLO     CLEAR     75  48  38 CALM      29.76R

NORTHEASTERN MEXICO

CITY           SKY/WX    TMP DP  RH WIND       PRES   REMARKS
MONCLOVA         N/A    N/A N/A N/A MISG        N/A
MONTERREY      CLOUDY    79  70  73 E16       29.81S
REYNOSA          N/A    N/A N/A N/A MISG        N/A
SALTILLO       LGT RAIN  64  55  72 N7        30.06R
CD. VICTORIA     N/A    N/A N/A N/A MISG        N/A

WESTERN MEXICO

CITY           SKY/WX    TMP DP  RH WIND       PRES   REMARKS
AGUASCALIENTES   N/A    N/A N/A N/A MISG        N/A
COLIMA           N/A    N/A N/A N/A MISG        N/A
DEL BAJIO      LGT RAIN  63  63 100 CALM      30.18S
GUADALAJARA    MOCLDY    66  63  88 CALM      30.06S
MAZATLAN       CLOUDY    79  77  94 SE3       29.74R THUNDER
P. VALLARTA    CLOUDY    75  75 100 NE5       29.79R
URUAPAN          N/A    N/A N/A N/A MISG        N/A
ZACATECAS        N/A    N/A N/A N/A MISG        N/A

CENTRAL MEXICO

CITY           SKY/WX    TMP DP  RH WIND       PRES   REMARKS
CUERNAVACA       N/A    N/A N/A N/A MISG        N/A
MEXICO CITY    CLOUDY    63  55  77 NW9       30.21S
MORELIA        MOCLDY    63  61  94 SW6       30.11F
POZA RICA        N/A    N/A N/A N/A MISG        N/A
QUERETARO      LGT RAIN  63  61  94 SE5       30.19F
S. LUIS POTOSI CLOUDY    63  63 100 CALM      30.12S
TOLUCA         CLOUDY    55  54  94 CALM      30.27S

SOUTHERN MEXICO

CITY           SKY/WX    TMP DP  RH WIND       PRES   REMARKS
ACAPULCO       PTCLDY    82  79  89 N2        29.80F HX  93
B. DE HUATULCO   N/A    N/A N/A N/A MISG        N/A
P. ESCONDIDO     N/A    N/A N/A N/A MISG        N/A
VERACRUZ       PTCLDY    82  77  83 CALM      29.80S HX  91

YUCATAN PENINSULA

CITY           SKY/WX    TMP DP  RH WIND       PRES   REMARKS
CAMPECHE         N/A    N/A N/A N/A MISG        N/A
CANCUN         PTCLDY    82  79  89 NE2       29.84F HX  93
CHETUMAL       CLEAR     84  77  79 E7        29.81F HX  94
CD. DEL CARMEN   N/A    N/A N/A N/A MISG        N/A
COZUMEL        PTCLDY    79  77  94 CALM      29.81F
MERIDA         PTCLDY    77  72  83 E5        29.85F
MINATITLAN       N/A    N/A N/A N/A MISG        N/A
TAPACHULA      MOCLDY    75  75 100 CALM      29.82F

CENTRAL AMERICA

CITY           SKY/WX    TMP DP  RH WIND       PRES   REMARKS
MANAGUA        PTCLDY    75  73  94 CALM      29.83F

CARIBBEAN

CITY           SKY/WX    TMP DP  RH WIND       PRES   REMARKS
ARUBA          PTCLDY    86  77  74 E16       29.83F HX  97
CURACAO        PTCLDY    84  75  74 SE16      29.86F HX  92
KINGSTON       PTCLDY    86  75  70 SE12      29.89S HX  95
SAN JUAN       CLEAR     81  79  94 CALM      29.92F
SANTO DOMINGO  CLOUDY    79  77  94 CALM      29.92F THUNDER

$$





USA.gov is the U.S. government's official web portal to all federal, state and local government web resources and services.